Regional Weather Roundup
Issued by NWS Bismarck, ND

Home | Current Version | Previous Version | Text Only | Print | Product List | Glossary On
Versions: 1 2 3 4 5 6 7 8 9 10 11 12 13 14 15 16 17 18 19 20 21 22 23 24 25 26 27 28 29 30 31 32 33 34 35 36 37 38 39 40 41 42 43 44 45 46 47 48 49 50
000
ASUS43 KBIS 241510
RWRBIS

NWR BROADCAST TEXT
NATIONAL WEATHER SERVICE BISMARCK ND
1000 AM CDT SUN SEP 24 2017

NOTE: "FAIR" INDICATES FEW OR NO CLOUDS BELOW 12,000 FEET WITH NO
SIGNIFICANT WEATHER AND/OR OBSTRUCTIONS TO VISIBILITY.


CITY           SKY/WX    TMP DP  RH WIND       PRES   REMARKS
WILLISTON      LGT RAIN  45  42  89 N13       30.10F
MINOT          CLOUDY    47  45  93 NW12      30.03F
MINOT AFB      CLOUDY    46  45  95 N13       30.03F
BISMARCK       LGT RAIN  49  48  97 N14       29.99R
DICKINSON      CLOUDY    44  43  96 N12       30.02R
GARRISON         N/A     46  45  96 N13       30.01F
HETTINGER ARPT CLOUDY    44  42  93 N13       30.04R
JAMESTOWN      RAIN      49  48  97 N14       29.89R FOG
CARRINGTON     RAIN      48  48 100 N9G17     29.95R
LINTON         LGT RAIN  50  50 100 N10       29.96F
TIOGA          LGT RAIN  43  43 100 N10       30.10F
$$

CITY           SKY/WX    TMP DP  RH WIND       PRES   REMARKS
GRAND FORKS    LGT RAIN  53  53 100 N16       29.86S
GRAND FORKS AF LGT RAIN  50  50 100 N14       29.88F
DEVILS LAKE    LGT RAIN  48  47  96 N18       29.94F
FARGO          CLOUDY    56  56 100 N9        29.83F FOG
CANDO          RAIN      48  48 100 N16       29.99S
CAVALIER       CLOUDY    50  50 100 N13G21    29.91F
GWINNER        CLOUDY    55  55 100 CALM      29.84R FOG
ROLLA          LGT RAIN  46  46 100 N20       30.00S
WALHALLA       FAIR     N/A N/A N/A N13G18    29.95S
$$

CITY           SKY/WX    TMP DP  RH WIND       PRES   REMARKS
ABERDEEN       LGT RAIN  54  54 100 NW12      29.86R FOG
MOBRIDGE       LGT RAIN  50  48  93 NW16G23   29.92R
BUFFALO          N/A     45  42  89 N13       29.99R
RAPID CITY     CLOUDY    45  43  93 NW21      30.03R
GLASGOW        CLOUDY    45  41  86 CALM      30.12S
SIDNEY         LGT RAIN  44  42  93 N10       30.10
WOLF POINT     CLOUDY    47  44  90 CALM      30.13R
GLENDIVE       LGT RAIN  43  40  89 N10       30.11F
MILES CITY     CLOUDY    43  40  89 N5        30.12S
BAKER          CLOUDY    41  38  89 N10       30.09S
$$

CITY           SKY/WX    TMP DP  RH WIND       PRES   REMARKS
BILLINGS       CLOUDY    41  38  89 NW5       30.12R
GREAT FALLS    SUNNY     39  33  79 SW3       30.10S
REGINA         MOSUNNY   39  36  87 NE5       30.14R
ESTEVAN        LGT RAIN  43  43 100 NW8       30.11F
$$





USA.gov is the U.S. government's official web portal to all federal, state and local government web resources and services.